Orbital Elements at Epoch 2459200.5 (2020-Dec-17.0) TDB
Reference: JPL 19 (heliocentric ecliptic J2000)
Element | Value | Uncertainty (1-sigma) | Units |
e | .0893341795433162 | 4.9503e-08 | |
a | 2.90982201431282 | 4.5579e-08 | au |
q | 2.649875452047105 | 1.4335e-07 | au |
i | 15.60131894062275 | 1.0683e-05 | deg |
node | 304.0361201638103 | 1.8234e-05 | deg |
peri | 74.29107491280968 | 6.7016e-05 | deg |
M | 35.76484541718981 | 6.0467e-05 | deg |
tp | 2459020.384156527856 (2020-Jun-19.88415653) | 0.00030599 | TDB |
period | 1813.001087900873 4.96 | 4.2598e-05 1.166e-07 | d yr |
n | .198565793701103 | 4.6654e-09 | deg/d |
Q | 3.169768576578536 | 4.965e-08 | au |
|
| | Orbit Determination Parameters
Additional Information
|